Weather History for Del Rio, TX

Change the Weather History Date:

Monday, August 26, 2013

  Actual Average Record
Temperature  
Mean Temperature 84 °F 85 °F  
Max Temperature 90 °F 96 °F 103 °F (2002)
Min Temperature 78 °F 75 °F 62 °F (1926)
Degree Days  
Heating Degree Days 0 0  
Month to date heating degree days 0 0  
Since 1 June heating degree days 0 0  
Since 1 July heating degree days 0 0  
Cooling Degree Days 19 20  
Month to date cooling degree days 642 562  
Year to date cooling degree days 2834 2540  
Since 1 June cooling degree days 1928 1781  
Growing Degree Days 34 (Base 50)    
Moisture  
Dew Point 69 °F    
Average Humidity 63    
Maximum Humidity 79    
Minimum Humidity 47    
Precipitation  
Precipitation T in 0.09 in 2.02 in (1969)
Month to date precipitation 0.51 1.73  
Year to date precipitation 8.26 13.06  
Sea Level Pressure  
Sea Level Pressure 30.00 in    
Wind  
Wind Speed 9 mph (ESE)    
Max Wind Speed 20 mph    
Max Gust Speed 28 mph    
Visibility 10 miles    
Events      
T = Trace of Precipitation, MM = Missing Value Source: NWS Daily Summary

Daily Weather History Graph

Daily Weather History Graph

Search for Another Location

Airport:

Trip Planner

Search our weather history database for the weather conditions in past years. The results will help you decide how hot, cold, wet, or windy it might be!

Date:

Astronomy

Aug. 26, 2013 Rise Set
Actual Time 7:18 AM CDT 8:12 PM CDT
Civil Twilight 6:53 AM CDT 8:36 PM CDT
Nautical Twilight 6:24 AM CDT 9:05 PM CDT
Astronomical Twilight 5:55 AM CDT 9:34 PM CDT
Moon 11:56 PM CDT (8/26) 12:50 PM CDT (8/26)
Length of Visible Light 13h 42m
Length of Day
12h 53m
Waning Gibbous, 66% of the Moon is Illuminated
Aug 26
Waning Gibbous
Aug 28
Last Quarter
Sep 5
New
Sep 12
First Quarter
Sep 19
Full

Hourly Weather History & Observations

Time (CDT) Temp. Heat Index Dew Point Humidity Pressure Visibility Wind Dir Wind Speed Gust Speed Precip Events Conditions
12:53 AM 87.1 °F 90.6 °F 68.0 °F 53% 29.99 in 10.0 mi ESE 18.4 mph 23.0 mph N/A   Clear
1:53 AM 84.0 °F 88.4 °F 70.0 °F 63% 30.00 in 10.0 mi ESE 15.0 mph 23.0 mph N/A   Clear
2:53 AM 82.9 °F 87.0 °F 70.0 °F 65% 30.00 in 10.0 mi ESE 6.9 mph - N/A   Scattered Clouds
3:53 AM 82.0 °F 85.9 °F 70.0 °F 67% 29.99 in 10.0 mi East 6.9 mph - N/A   Clear
4:53 AM 81.0 °F 84.4 °F 70.0 °F 69% 30.00 in 10.0 mi East 4.6 mph - N/A   Mostly Cloudy
5:53 AM 79.0 °F - 70.0 °F 74% 30.01 in 10.0 mi East 5.8 mph - N/A   Partly Cloudy
6:53 AM 78.1 °F - 71.1 °F 79% 30.02 in 10.0 mi ENE 6.9 mph - N/A   Partly Cloudy
7:53 AM 78.1 °F - 71.1 °F 79% 30.03 in 10.0 mi ENE 8.1 mph - N/A   Clear
8:53 AM 81.0 °F 84.9 °F 71.1 °F 72% 30.03 in 10.0 mi East 10.4 mph - N/A   Clear
9:53 AM 84.0 °F 88.4 °F 70.0 °F 63% 30.04 in 10.0 mi East 8.1 mph - N/A   Mostly Cloudy
10:19 AM 84.2 °F 88.4 °F 69.8 °F 62% 30.10 in 10.0 mi NE 6.9 mph - N/A   Overcast
10:53 AM 84.9 °F 88.2 °F 68.0 °F 57% 30.05 in 10.0 mi East 4.6 mph - N/A   Mostly Cloudy
11:53 AM 86.0 °F 89.4 °F 68.0 °F 55% 30.03 in 10.0 mi ESE 8.1 mph - N/A   Scattered Clouds
12:53 PM 88.0 °F 91.4 °F 68.0 °F 51% 30.01 in 10.0 mi SE 10.4 mph - N/A   Scattered Clouds
1:53 PM 86.0 °F 90.1 °F 69.1 °F 57% 30.00 in 10.0 mi SE 10.4 mph - N/A   Partly Cloudy
2:53 PM 87.1 °F 92.8 °F 71.1 °F 59% 29.98 in 10.0 mi East 8.1 mph - 0.00 in   Mostly Cloudy
3:53 PM 89.1 °F 93.7 °F 69.1 °F 52% 29.96 in 10.0 mi SSE 6.9 mph - N/A   Scattered Clouds
4:53 PM 89.1 °F 92.9 °F 68.0 °F 50% 29.94 in 10.0 mi SE 5.8 mph - N/A   Clear
5:53 PM 90.0 °F 92.8 °F 66.9 °F 46% 29.94 in 10.0 mi ESE 10.4 mph - N/A   Partly Cloudy
6:53 PM 88.0 °F 91.4 °F 68.0 °F 51% 29.95 in 10.0 mi East 13.8 mph 21.9 mph N/A   Mostly Cloudy
7:53 PM 87.1 °F 91.3 °F 69.1 °F 55% 29.94 in 10.0 mi East 10.4 mph - N/A   Clear
8:53 PM 84.9 °F 88.2 °F 68.0 °F 57% 29.96 in 10.0 mi ESE 8.1 mph - N/A   Clear
9:53 PM 82.9 °F 87.0 °F 70.0 °F 65% 29.98 in 10.0 mi ESE 12.7 mph - N/A   Scattered Clouds
10:53 PM 81.0 °F 83.8 °F 68.0 °F 65% 29.99 in 10.0 mi ESE 11.5 mph - N/A   Clear
11:53 PM 80.1 °F 82.7 °F 68.0 °F 67% 29.99 in 10.0 mi ESE 9.2 mph - N/A   Partly Cloudy